{"data":{"norad_id":69270,"epoch":"2026-09-20T05:09:05.778144Z","epoch_age_seconds":54713,"freshness":"FRESH","line1":"1 69270U 26118D   26263.21465021  .00051256  00000+0  67173-2 0  9996","line2":"2 69270  51.9041 330.3968 0001411  59.6133 300.4968 14.79832570 18377","mean_motion":14.7983257,"eccentricity":0.0001411,"inclination_deg":51.9041,"raan_deg":330.3968,"arg_perigee_deg":59.6133,"mean_anomaly_deg":300.4968,"bstar":0.0067173,"rev_number":1837,"period_min":97.308305628116,"perigee_km":628.86385238416,"apogee_km":630.84150707178,"semimajor_km":7007.989679728,"source":"CELESTRAK","updated_at":"2026-09-20T09:00:24.776308Z"}}